Helicity
79 107 109 113 104 206 208 231 212 194 229 398 510 376 400 381 316 302 253 172 156 133 87 154 157 141 134 124 111 94 84 97 81 78 67 60 62 69
89 78 108 133 80 -7 146 267 240 194 177 259 225 430 375 386 301 301 272 190 143 165 142 224 227 183 154 160 150 103 126 104 80 76 72 65 69 70
96 67 63 136 128 121 156 201 270 200 153 181 137 193 444 376 319 281 323 238 174 193 203 259 232 246 194 193 177 150 140 101 80 81 78 71 71 69
95 81 73 111 144 115 61 121 119 119 133 181 252 210 441 352 362 319 296 286 226 206 248 267 259 250 270 230 211 170 143 97 92 91 80 76 78 72
89 94 80 90 114 152 132 169 133 90 115 200 240 221 345 475 376 386 320 299 271 233 264 249 262 254 278 265 237 184 137 108 106 105 95 83 80 79
90 102 105 95 96 131 135 111 35 129 167 142 160 296 291 423 481 465 353 333 342 288 256 262 270 266 246 274 273 208 153 141 132 135 123 110 92 91
77 91 111 101 110 123 142 123 110 112 130 84 200 447 230 357 397 489 404 428 324 339 327 339 327 305 276 257 257 273 213 160 154 162 153 129 104 93
59 70 97 115 121 144 142 166 89 112 6 -74 87 310 416 346 467 472 445 443 385 282 368 364 365 312 290 253 239 234 221 179 175 166 161 128 117 103
76 75 74 101 116 147 167 147 120 94 123 74 16 155 348 279 469 446 447 412 420 420 365 367 370 330 336 294 231 244 239 209 183 175 161 134 125 119
58 79 109 92 112 126 147 150 113 85 114 94 102 74 149 335 503 357 404 342 348 498 440 363 390 393 384 357 264 272 262 223 192 169 154 151 131 124
55 71 96 105 96 100 130 145 153 79 49 42 71 -108 -12 141 430 432 270 453 492 487 442 413 410 403 375 380 334 261 294 266 234 192 156 148 134 125
92 92 46 84 87 88 126 134 145 149 70 18 -0 74 138 -8 128 399 499 321 639 541 472 539 489 563 484 409 351 336 313 274 271 228 191 163 144 221
98 117 127 72 62 69 79 129 133 161 132 34 39 39 144 130 139 178 369 495 367 492 514 689 586 516 479 366 436 344 378 348 329 278 226 199 214 250
107 99 71 68 80 81 90 81 83 112 175 117 50 68 96 70 125 219 345 405 474 334 350 461 617 572 570 555 416 435 353 393 447 403 342 271 231 212
93 75 62 89 96 103 77 81 84 143 166 185 93 55 67 7 -4 111 273 435 417 296 335 330 581 567 565 503 602 458 478 416 465 482 452 430 404 335
32 58 75 92 92 106 109 99 123 148 153 171 152 39 42 87 -71 2 158 308 399 368 315 296 401 461 563 487 496 539 393 511 518 501 491 465 420 376
79 93 94 114 136 153 157 147 153 137 142 134 158 88 23 63 -37 84 27 199 326 329 370 343 343 371 381 543 538 474 454 462 415 535 527 498 444 430
132 153 159 157 158 186 193 193 168 123 126 124 128 132 72 92 110 175 272 126 337 316 382 464 548 604 544 463 401 385 442 455 463 404 486 469 437 417
129 206 184 223 233 210 193 197 203 198 159 124 112 113 127 116 164 217 214 287 303 361 412 550 537 565 448 404 437 335 374 430 451 405 400 419 421 428
155 169 260 244 216 210 217 201 207 194 186 155 115 99 124 152 181 197 238 178 296 391 462 493 461 556 488 477 512 406 285 429 437 419 429 452 396 291
187 190 202 280 277 239 222 238 204 193 198 155 143 129 128 175 165 190 185 268 210 275 449 443 428 429 607 638 511 399 455 353 377 456 473 447 466 429
144 211 253 283 388 404 297 236 225 200 183 167 149 161 129 172 167 156 230 247 263 313 397 464 523 601 574 454 470 492 442 442 341 308 312 488 429 363
145 239 322 312 413 463 398 287 227 194 190 193 177 146 133 182 185 168 199 230 296 243 343 495 575 581 409 453 507 571 482 494 500 462 400 350 295 204
Wind_Speed
72 70 71 68 72 71 72 69 66 78 78 53 69 67 65 61 64 57 52 51 46 45 41 37 31 27 22 17 12 9 6 8 11 15 20 25 30 35
75 75 73 69 75 72 74 73 72 70 76 67 72 74 67 63 63 62 57 53 50 48 45 40 35 30 25 20 15 10 7 6 8 11 16 21 26 30
73 75 77 73 75 71 72 77 83 70 72 66 64 76 72 68 63 60 61 56 54 50 48 44 39 35 29 24 19 14 9 6 5 8 12 17 21 26
76 79 79 76 75 72 72 74 80 80 74 75 70 68 79 71 67 63 61 61 55 52 51 47 43 39 34 28 23 18 13 8 5 5 8 12 17 22
75 78 80 79 79 76 72 73 75 79 80 80 65 64 76 74 69 64 62 63 60 54 53 51 47 43 38 33 28 23 18 13 8 3 3 8 13 18
76 78 78 82 82 78 76 78 73 75 82 79 83 72 71 77 74 68 67 62 58 63 58 55 51 47 43 38 34 29 25 19 13 8 2 4 9 13
73 78 79 80 85 85 82 76 78 79 82 90 89 82 84 77 88 74 71 65 62 59 64 62 58 54 49 44 39 33 30 25 19 13 8 1 4 8
75 75 78 83 87 91 92 88 79 78 81 90 91 89 81 87 79 87 75 74 71 66 63 67 61 62 54 50 45 39 33 29 25 19 13 7 2 3
75 75 75 78 85 87 90 94 91 89 87 78 97 95 81 82 79 85 78 76 79 68 62 65 65 65 58 56 48 45 39 34 29 24 18 12 7 2
74 73 75 78 76 81 87 92 97 91 90 92 96 93 82 76 72 88 82 75 63 72 71 73 68 69 62 59 53 49 45 40 35 29 24 17 12 7
78 75 72 74 76 83 85 95 95 96 92 97 100 90 90 95 87 82 94 88 82 75 74 71 71 67 65 66 61 55 50 46 41 35 29 23 17 11
79 77 79 76 76 77 87 92 101 99 94 96 94 102 102 95 92 94 91 98 90 83 80 78 70 69 67 69 65 59 54 50 47 42 37 30 24 16
83 78 73 74 73 73 76 83 95 92 95 96 99 95 96 100 99 101 102 101 101 91 71 72 72 71 71 67 70 67 59 56 52 47 42 37 31 25
84 80 77 75 79 83 82 81 84 91 97 100 104 105 104 105 103 96 99 109 107 99 68 67 79 74 72 71 70 68 66 60 56 55 48 44 39 33
80 77 76 75 73 75 79 86 87 91 96 107 110 108 108 103 103 96 97 101 102 94 84 77 81 79 75 75 75 68 63 70 62 62 56 50 46 40
75 72 70 71 73 73 77 84 85 90 100 105 109 108 105 109 108 104 101 100 97 104 91 83 81 78 80 76 75 70 64 66 62 62 60 56 49 45
63 63 67 69 72 75 79 84 91 95 103 106 110 114 114 113 120 112 108 105 101 106 104 89 86 80 82 73 77 76 67 66 60 60 58 57 53 50
60 64 68 75 81 82 84 89 94 102 105 108 113 116 120 118 118 118 119 112 111 107 100 93 87 81 79 77 77 75 71 70 65 57 58 59 56 53
68 72 80 80 84 89 89 90 95 99 102 107 115 122 123 123 121 122 122 117 112 108 101 96 98 95 96 97 79 73 67 68 60 61 58 59 59 56
73 78 77 82 87 92 96 97 95 95 101 108 114 122 126 124 130 125 127 130 112 110 104 103 107 106 104 95 80 78 68 62 60 62 60 59 60 50
69 75 81 83 89 93 93 94 97 100 101 105 113 118 124 126 128 133 129 128 133 110 116 114 111 96 83 69 82 81 76 62 60 61 59 59 57 54
72 73 78 85 89 92 97 99 99 101 106 107 111 117 120 124 132 130 130 134 129 127 118 108 98 91 88 96 90 80 72 64 58 58 56 56 57 57
73 73 71 77 86 91 92 98 103 103 104 109 111 114 117 125 127 127 131 129 130 127 119 108 103 101 100 98 87 73 71 69 63 59 60 59 55 51
Wind_Direction
254 254 254 253 252 248 245 245 245 235 232 242 224 213 213 212 214 207 208 205 204 206 209 199 198 196 193 192 185 164 132 89 66 50 45 44 41 40
254 252 253 254 250 249 244 241 243 241 235 240 236 222 212 213 210 212 213 206 208 209 214 202 198 200 202 202 199 190 165 116 79 58 48 46 41 38
254 251 250 251 250 250 248 243 241 241 239 240 242 226 213 211 209 214 215 213 217 209 214 204 202 199 206 206 208 205 190 158 108 74 57 49 42 37
252 249 248 249 249 250 247 247 243 238 241 238 242 231 217 211 206 213 215 217 219 215 210 207 204 201 202 208 210 214 209 199 159 100 65 55 48 39
253 250 247 247 248 247 247 248 247 243 241 238 244 235 223 216 208 213 215 219 223 218 211 212 209 209 203 206 211 217 220 217 205 171 73 55 52 44
252 250 249 246 246 246 247 246 248 245 239 239 239 241 225 221 213 213 216 218 218 222 221 218 216 213 212 207 213 216 219 214 214 217 206 44 44 45
255 251 249 247 245 244 245 245 246 245 242 237 237 238 233 225 220 219 216 218 222 221 224 225 223 223 223 217 213 210 212 214 219 217 219 228 41 45
254 253 251 248 245 244 243 244 246 243 241 238 239 236 236 227 223 220 219 217 222 228 223 229 225 229 229 230 226 217 215 216 218 216 217 221 187 68
256 253 252 250 247 246 245 243 244 244 243 242 237 235 239 230 226 220 219 221 226 227 221 228 228 232 233 233 225 224 219 215 216 214 215 223 211 206
257 256 254 251 251 249 246 244 243 244 243 243 242 241 244 241 236 229 224 223 226 228 221 231 232 235 233 234 226 222 219 219 219 213 208 220 219 229
259 258 257 256 254 251 249 245 244 244 244 243 244 245 246 241 239 239 230 225 228 230 223 233 235 235 235 236 236 226 219 218 221 219 218 218 211 212
260 259 257 256 255 253 250 247 244 244 244 243 243 243 244 245 244 240 235 229 225 233 231 230 229 232 239 242 239 234 233 220 218 220 222 224 228 251
260 259 259 257 255 254 252 251 247 247 245 244 242 242 242 241 241 239 237 234 231 233 231 227 231 230 240 246 242 239 235 236 235 234 226 228 229 244
262 261 261 258 256 254 252 252 250 247 245 243 242 240 239 238 238 240 240 237 238 236 228 217 235 227 236 243 244 241 239 239 235 238 238 237 233 239
264 262 260 259 259 257 253 251 249 247 244 242 240 239 238 239 239 240 240 240 240 237 234 221 235 230 235 242 242 243 237 242 240 239 239 237 239 240
264 261 259 259 259 258 255 251 249 247 245 243 241 241 240 239 238 236 237 238 237 235 233 227 231 233 238 242 241 243 237 241 238 240 241 243 241 240
267 261 259 257 255 254 252 249 247 246 244 244 242 239 238 237 236 235 236 236 236 233 231 230 232 236 239 239 241 241 236 242 240 239 240 242 242 241
267 261 256 253 253 252 251 250 247 245 244 242 240 238 236 235 235 234 235 235 236 232 230 229 228 231 240 245 245 240 238 240 243 240 241 243 246 247
264 260 258 256 253 252 253 251 249 246 244 242 239 237 236 234 234 233 233 234 233 232 229 227 225 229 234 239 244 242 235 240 240 242 240 242 248 247
265 264 260 258 256 255 252 251 250 248 244 241 240 236 234 233 233 233 232 230 232 230 228 226 226 229 233 236 243 243 236 236 238 241 243 250 257 254
266 263 261 259 255 254 253 250 248 246 245 242 239 236 234 233 233 231 232 232 228 231 227 227 228 228 234 236 242 242 236 237 235 237 241 242 248 251
270 265 262 259 255 253 251 249 248 246 243 240 238 236 234 234 233 232 231 229 228 229 230 229 227 226 229 233 237 240 238 237 236 239 238 239 246 247
276 270 262 259 255 251 249 248 247 245 241 238 235 235 234 233 232 231 230 230 230 227 227 226 224 227 229 234 235 237 235 230 233 237 243 250 254 256